Home > Weather > Taipei > Past weeks

Flag for Taiwan Weather for the Past 2 Weeks in Taipei, Taiwan

Now
72 °F

Light rain. Fog.


Feels Like: 72 °F
Forecast: 71 / 83 °F
Wind: 7 mph from Southwest

Location: Sungshan / Taipei

Current Time: May 1, 2016 at 4:41:23 AM

Latest Report: May 1, 2016 at 4:00 AM


Visibility: 3 mi

Pressure: 29.92 "Hg

Humidity: 78%

Dew Point: 64 °F

Location of TaipeiLocation

Historic Weather in Taipei — Graph

°F

Taipei Temperature Yesterday

Maximum temperature yesterday: 82 °F (at 12:30 PM)
Minimum temperature yesterday: 68 °F (at 12:00 AM)
Average temperature yesterday: 75 °F

High & Low Weather Summary for the Past Weeks

 TemperatureHumidityPressure
High90 °F (Apr 21, 12:30 PM)94% (Apr 16, 7:00 AM)30.15 "Hg (Apr 16, 7:00 AM)
Low63 °F (Apr 18, 2:45 PM)39% (Apr 29, 2:30 PM)29.68 "Hg (Apr 27, 1:57 PM)
Average75 °F73%29.89 "Hg
* Reported Apr 16 3:00 AM — May 1 3:00 AM, Taipei, Weather by CustomWeather, © 2016

Note: Actual official high and low records may vary slightly from our data, if they occured in-between our weather recording intervals... More about our weather records

Advertising

Taipei Weather History for the Previous 24 Hours

Scroll right to see more
 ConditionsComfort  
Time TempWeatherWind HumidityBarometerVisibility
3:00 AM
Sun, May 1
70 °FLight rain. Fog.3 mph83%29.89 "Hg3 mi
2:00 AM70 °FLight rain. Fog.6 mph83%29.86 "Hg2 mi
1:00 AM70 °FLight rain. Fog.5 mph83%29.86 "Hg2 mi
12:00 AM70 °FFog.No wind83%29.92 "Hg2 mi
11:30 PM
Sat, Apr 30
72 °FFog.2 mph78%29.92 "Hg2 mi
11:00 PM72 °FPartly cloudy.3 mph78%29.95 "Hg2 mi
10:00 PM72 °FPartly cloudy.2 mph78%29.95 "Hg2 mi
9:30 PM72 °FPartly cloudy.5 mph69%29.95 "Hg2 mi
9:00 PM72 °FPartly cloudy.3 mph78%29.95 "Hg2 mi
8:30 PM73 °FLight rain. Partly cloudy.2 mph78%29.95 "Hg2 mi
8:00 PM73 °FLight rain. Partly cloudy.3 mph78%29.92 "Hg2 mi
7:30 PM73 °FLight rain. Partly cloudy.5 mph78%29.92 "Hg3 mi
7:00 PM73 °FLight rain. Partly cloudy.2 mph78%29.92 "Hg3 mi
6:47 PM73 °FLight rain. Partly cloudy.5 mph78%29.92 "Hg3 mi
6:00 PM75 °FLight rain. Fog.3 mph74%29.92 "Hg3 mi
5:30 PM75 °FLight rain. Broken clouds.3 mph69%29.92 "Hg4 mi
5:00 PM75 °FLight rain. Broken clouds.3 mph69%29.89 "Hg4 mi
4:30 PM75 °FLight rain. Broken clouds.3 mph69%29.89 "Hg3 mi
4:00 PM77 °FLight rain. Broken clouds.5 mph65%29.89 "Hg4 mi
3:30 PM79 °FLight rain. Broken clouds.9 mph61%29.89 "Hg4 mi
3:00 PM79 °FLight rain. Broken clouds.5 mph54%29.86 "Hg4 mi
2:30 PM81 °FLight rain. Partly sunny.5 mph51%29.89 "Hg4 mi
2:00 PM82 °FPartly sunny.7 mph48%29.89 "Hg5 mi
1:30 PM82 °FBroken clouds.5 mph45%29.89 "Hg5 mi
1:00 PM82 °FBroken clouds.3 mph48%29.89 "Hg6 mi
12:30 PM82 °FBroken clouds.3 mph45%29.89 "Hg6 mi
12:00 PM81 °FBroken clouds.5 mph51%29.92 "Hg5 mi
11:30 AM81 °FBroken clouds.3 mph48%29.92 "Hg5 mi
11:00 AM81 °FBroken clouds.2 mph48%29.92 "Hg5 mi
10:30 AM81 °FBroken clouds.5 mph54%29.95 "Hg4 mi
10:00 AM77 °FPartly sunny.5 mph61%29.95 "Hg4 mi
9:30 AM75 °FPartly sunny.5 mph61%29.95 "Hg4 mi
8:30 AM73 °FPartly sunny.3 mph65%29.95 "Hg4 mi
7:30 AM73 °FPartly sunny.2 mph65%29.95 "Hg4 mi
7:00 AM72 °FBroken clouds.3 mph65%29.92 "Hg4 mi
6:30 AM70 °FBroken clouds.5 mph73%29.92 "Hg4 mi
6:00 AM70 °FPartly sunny.2 mph69%29.92 "Hg4 mi
5:00 AM70 °FPassing clouds.5 mph69%29.92 "Hg4 mi
4:00 AM68 °FPassing clouds.6 mph73%29.89 "Hg4 mi
Weather by CustomWeather, © 2016

See weather overviewHow to use our weather pages